Weather reports worldwide

Advertisment
Deauville, France (7031): temperature & dewpoint: 18.03.2019 17:00:00 - 24.03.2019 17:00:00 (CET)Deauville, France (7031): temperature 5cm: 18.03.2019 17:00:00 - 24.03.2019 17:00:00 (CET)Deauville, France (7031): wind speed & gusts: 18.03.2019 17:00:00 - 24.03.2019 17:00:00 (CET)Deauville, France (7031): wind direction: 18.03.2019 17:00:00 - 24.03.2019 17:00:00 (CET)Deauville, France (7031): reduced air pressure: 18.03.2019 17:00:00 - 24.03.2019 17:00:00 (CET)Deauville, France (7031): visibility: 18.03.2019 17:00:00 - 24.03.2019 17:00:00 (CET)Deauville, France (7031): precipitation: 18.03.2019 17:00:00 - 24.03.2019 17:00:00 (CET)
Date & Time tt [°C] td [°C] tt 5cm [°C] ff [km/h] ff [kn] fx [km/h] fx [kn] dd ppp [hPa] vv [km] rr [mm]
24.03.2019 17:00:00 10,4 2,5 16,3 13 7 29 16 NNW 1030,0 60 0,0
24.03.2019 16:00:00 10,3 0,3 16,8 18 10 34 19 N 1030,3 37 0,0
24.03.2019 15:00:00 10,6 1,4 18,8 19 10 39 21 N 1030,5 20 0,0
24.03.2019 14:00:00 10,8 3,1 12,8 21 11 42 23 N 1030,9 20 0,0
24.03.2019 13:00:00 10,4 3,9 13,1 17 9 32 18 N 1030,9 20 0,0
24.03.2019 12:00:00 10,8 5,7 13,7 12 7 27 15 N 1030,8 14 0,0
24.03.2019 11:00:00 8,7 6,0 8,9 7 4 20 11 N 1030,8 12 0,0
24.03.2019 10:00:00 7,7 5,8 8,2 7 4 14 8 N 1031,0 9 0,0
24.03.2019 09:00:00 7,1 5,6 6,8 7 4 17 9 NNE 1030,6 9 0,0
24.03.2019 08:00:00 6,6 5,2 6,1 7 4 21 11 ENE 1029,9 10 0,0
24.03.2019 07:00:00 6,9 4,9 6,2 10 6 21 11 NE 1030,0 13 0,0
24.03.2019 06:00:00 7,2 5,0 6,7 13 7 22 12 NNE 1029,9 18 0,0
24.03.2019 05:00:00 7,4 5,5 6,8 10 6 21 11 NNE 1029,8 16 0,0
24.03.2019 04:00:00 7,6 6,5 7,2 10 5 14 8 NNE 1029,8 9 0,0
24.03.2019 03:00:00 8,1 7,2 7,7 8 5 16 8 NNE 1029,9 4,7 0,0
24.03.2019 02:00:00 8,4 7,6 7,9 7 4 11 6 NNE 1030,1 2,6 0,0
24.03.2019 01:00:00 8,5 7,6 7,9 6 3 11 6 NNE 1030,3 2,3 0,0
24.03.2019 00:00:00 8,6 7,5 7,7 7 4 16 9 NE 1030,7 2,5 0,0
23.03.2019 23:00:00 8,7 7,3 7,8 7 4 18 10 NE 1030,9 3,8 0,0
23.03.2019 22:00:00 8,9 7,0 8,1 10 5 17 9 NE 1031,2 4,9 0,0
23.03.2019 21:00:00 9,1 7,4 8,2 8 4 18 10 NNE 1031,1 4,3 0,0
23.03.2019 20:00:00 9,3 6,7 8,1 3 2 13 7 NE 1031,0 9 0,0
23.03.2019 19:00:00 9,6 7,2 8,8 8 4 14 7 E 1030,9 7 0,0
23.03.2019 18:00:00 9,7 7,5 9,6 5 3 11 6 NE 1030,8 6 0,0
23.03.2019 17:00:00 9,8 7,7 10,4 8 4 14 8 NNE 1030,9 4,6 0,0
23.03.2019 16:00:00 10,1 7,7 12,4 6 4 13 7 N 1031,0 5 0,0
23.03.2019 15:00:00 10,5 7,6 13,4 9 5 16 9 N 1031,2 6 0,0
23.03.2019 14:00:00 10,5 8,1 12,5 6 3 13 7 N 1031,6 6 0,0
23.03.2019 13:00:00 9,6 7,5 12,3 6 4 13 7 N 1032,1 4,5 0,0
23.03.2019 12:00:00 9,2 6,5 11,5 8 4 15 8 N 1032,0 10 0,0
23.03.2019 11:00:00 9,2 7,3 13,0 5 3 11 6 NNE 1032,0 7 0,0
23.03.2019 10:00:00 8,2 8,1 7,9 2 1 7 4 WNW 1031,6 4,6 0,0
23.03.2019 09:00:00 6,9 6,8 7,2 4 2 10 5 NNE 1031,7 3,0 0,0
23.03.2019 08:00:00 6,5 6,4 6,2 2 1 6 4 S 1031,5 2,6 0,0
23.03.2019 07:00:00 6,2 6,1 5,8 2 1 5 3 SW 1031,2 3,6 0,0
23.03.2019 06:00:00 5,8 5,7 5,2 2 1 6 3 ESE 1030,8 3,1 0,0
23.03.2019 05:00:00 5,5 5,4 4,5 3 2 6 4 SE 1030,3 2,4 0,0
23.03.2019 04:00:00 4,9 4,8 4,1 2 1 5 3 S 1030,6 1,7 0,0
23.03.2019 03:00:00 4,2 4,1 2,3 2 1 8 5 E 1030,6 0,2 0,0
23.03.2019 02:00:00 3,9 3,6 -0,7 3 1 9 5 ENE 1030,8 0,1 0,0
23.03.2019 01:00:00 4,3 4,0 -3,3 4 2 6 3 N 1030,4 0,1 0,0
23.03.2019 00:00:00 4,7 4,3 -3,2 4 2 8 5 SE 1030,4 0,2 0,0
22.03.2019 23:00:00 4,7 4,3 -2,2 4 2 9 5 N 1030,2 0,1 0,0
22.03.2019 22:00:00 5,8 5,2 -2,4 8 4 12 7 N 1030,0 1,4 0,0
22.03.2019 21:00:00 5,7 4,8 -1,6 0 0 8 4 N 1029,7 1,7 0,0
22.03.2019 20:00:00 6,6 4,9 -0,3 3 2 7 4 N 1029,4 2,5 0,0
22.03.2019 19:00:00 9,2 5,7 7,2 3 2 18 10 NNW 1028,8 5 0,0
22.03.2019 18:00:00 10,9 6,4 14,9 8 5 20 11 NNW 1028,5 6 0,0
22.03.2019 17:00:00 12,4 5,1 18,4 12 6 20 11 NNW 1028,3 7 0,0
22.03.2019 16:00:00 13,2 7,8 21,8 10 5 21 12 N 1028,2 6 0,0
22.03.2019 15:00:00 14,5 8,2 16,7 9 5 16 9 WNW 1028,4 10 0,0
22.03.2019 14:00:00 12,2 8,7 15,9 8 5 15 8 NNE 1029,0 7 0,0
22.03.2019 13:00:00 12,5 8,2 23,6 6 3 11 6 NE 1029,7 9 0,0
22.03.2019 12:00:00 10,4 8,7 15,1 4 2 13 7 SSW 1030,2 6 0,0
22.03.2019 11:00:00 7,4 7,3 10,6 4 2 13 7 E 1030,9 1,0 0,0
22.03.2019 10:00:00 6,9 6,8 9,8 3 2 13 7 NE 1030,8 0,3 0,0
22.03.2019 09:00:00 6,7 6,6 8,0 5 3 8 5 ENE 1030,9 0,1 0,0
22.03.2019 08:00:00 6,8 6,5 7,1 5 3 11 6 E 1030,5 0,1 0,0
22.03.2019 07:00:00 6,8 6,5 7,0 5 3 14 8 ESE 1030,2 0,2 0,0
22.03.2019 06:00:00 6,9 6,5 7,2 8 4 15 8 SE 1030,1 0,4 0,0
22.03.2019 05:00:00 7,1 6,5 7,1 5 3 10 5 ESE 1030,6 1,9 0,0
22.03.2019 04:00:00 7,3 6,6 7,1 8 5 16 9 SE 1030,8 3,9 0,0
22.03.2019 03:00:00 7,6 6,7 7,5 6 3 14 7 ESE 1031,2 4,7 0,0
22.03.2019 02:00:00 7,9 6,8 7,7 5 3 13 7 E 1031,9 7 0,0
22.03.2019 01:00:00 8,1 6,9 7,8 5 3 16 8 E 1032,3 8 0,0
22.03.2019 00:00:00 8,3 6,8 7,9 6 3 13 7 ENE 1032,6 7 0,0
21.03.2019 23:00:00 8,6 6,9 7,9 8 4 19 11 NE 1032,6 10 0,0
21.03.2019 22:00:00 8,7 6,8 7,9 6 4 13 7 NE 1032,7 15 0,0
21.03.2019 21:00:00 8,8 6,8 8,0 6 3 9 5 NNE 1032,8 20 0,0
21.03.2019 20:00:00 8,9 6,7 8,2 3 2 6 4 NNE 1033,1 20 0,0
21.03.2019 19:00:00 9,1 6,4 8,9 4 2 13 7 N 1033,2 58 0,0
21.03.2019 18:00:00 9,5 6,8 10,1 8 5 14 8 N 1033,0 52 0,0
21.03.2019 17:00:00 9,8 6,7 11,5 5 3 12 6 NNW 1033,4 19 0,0
21.03.2019 16:00:00 9,9 6,8 12,5 8 4 18 10 N 1033,9 19 0,0
21.03.2019 15:00:00 10,3 6,8 13,6 6 4 16 8 NNW 1034,1 33 0,0
21.03.2019 14:00:00 10,4 6,9 12,0 4 2 16 8 ENE 1035,0 35 0,0
21.03.2019 13:00:00 9,7 6,8 12,0 9 5 15 8 N 1035,4 33 0,0
21.03.2019 12:00:00 9,8 6,9 12,2 7 4 11 6 N 1035,7 20 0,0
21.03.2019 11:00:00 9,7 7,6 10,7 6 3 10 5 NNE 1035,9 19 0,0
21.03.2019 10:00:00 9,1 7,9 9,4 5 3 9 5 N 1035,8 15 0,0
21.03.2019 09:00:00 8,6 8,0 8,0 4 2 8 5 NW 1035,7 9 0,0
21.03.2019 08:00:00 7,6 7,2 6,8 4 2 5 3 W 1035,5 10 0,0
21.03.2019 07:00:00 6,8 6,4 4,7 0 0 4 2 N 1035,3 14 0,0
21.03.2019 06:00:00 6,1 5,5 2,2 0 0 6 3 N 1035,0 11 0,0
21.03.2019 05:00:00 5,9 5,3 0,7 4 2 7 4 SW 1035,1 9 0,0
21.03.2019 04:00:00 5,4 4,7 1,0 5 3 8 5 WSW 1034,9 13 0,0
21.03.2019 03:00:00 5,9 5,3 1,2 4 2 7 4 SW 1035,3 14 0,0
21.03.2019 02:00:00 5,6 5,0 -1,2 4 2 8 4 SSE 1035,8 13 0,0
21.03.2019 01:00:00 6,3 5,4 -0,8 4 2 8 4 E 1035,7 12 0,0
21.03.2019 00:00:00 6,9 6,2 3,1 4 2 6 3 NE 1035,8 39 0,0
20.03.2019 23:00:00 6,7 5,8 0,4 5 3 7 4 NE 1035,9 60 0,0
20.03.2019 22:00:00 7,0 5,8 -0,9 4 2 11 6 NNW 1035,7 60 0,0
20.03.2019 21:00:00 6,9 5,4 -0,5 4 2 9 5 NW 1035,6 60 0,0
20.03.2019 20:00:00 7,0 4,8 0,4 3 2 7 4 WNW 1035,2 60 0,0
20.03.2019 19:00:00 9,2 5,2 4,8 2 1 10 6 ENE 1035,0 60 0,0
20.03.2019 18:00:00 10,9 5,8 12,6 7 4 17 9 NNW 1034,6 60 0,0
20.03.2019 17:00:00 12,2 5,6 16,3 10 5 22 12 WNW 1034,3 58 0,0
20.03.2019 16:00:00 12,3 6,3 17,5 11 6 26 14 N 1034,7 59 0,0
20.03.2019 15:00:00 12,3 6,6 17,5 12 7 25 13 WNW 1034,9 34 0,0
20.03.2019 14:00:00 12,8 6,8 17,2 12 6 24 13 SW 1035,0 49 0,0
20.03.2019 13:00:00 12,5 7,6 16,9 11 6 21 11 W 1035,2 20 0,0
20.03.2019 12:00:00 11,3 7,6 15,9 11 6 20 11 SSW 1035,2 20 0,0
20.03.2019 11:00:00 9,1 7,5 11,8 8 4 15 8 S 1035,5 16 0,0
20.03.2019 10:00:00 7,2 7,1 8,7 6 3 12 7 SSW 1035,7 4,2 0,0
20.03.2019 09:00:00 7,0 6,9 7,2 6 4 14 8 SW 1035,2 0,5 0,0
20.03.2019 08:00:00 6,7 6,6 0,1 7 4 13 7 WSW 1034,7 1,9 0,0
20.03.2019 07:00:00 4,6 4,2 -2,1 4 2 8 5 WSW 1034,1 4,7 0,0
20.03.2019 06:00:00 4,4 4,0 -2,3 5 3 6 3 SSW 1033,6 0,5 0,0
20.03.2019 05:00:00 4,6 3,9 -2,1 3 2 7 4 WSW 1033,5 9 0,0
20.03.2019 04:00:00 5,6 4,7 0,5 5 3 13 7 SW 1033,6 20 0,0
20.03.2019 03:00:00 5,1 4,4 -1,7 8 4 12 6 SW 1033,6 36 0,0
20.03.2019 02:00:00 4,9 3,7 -1,7 8 4 10 6 SW 1033,6 32 0,0
20.03.2019 01:00:00 5,6 4,4 -0,2 6 4 11 6 WSW 1033,6 29 0,0
20.03.2019 00:00:00 6,4 3,9 2,4 9 5 20 11 SSW 1033,2 48 0,0
19.03.2019 23:00:00 7,9 4,3 5,2 6 3 13 7 SSW 1033,1 60 0,0
19.03.2019 22:00:00 6,7 4,5 1,5 7 4 8 5 SSW 1032,9 60 0,0
19.03.2019 21:00:00 4,9 2,8 0,1 7 4 11 6 SSW 1032,3 60 0,0
19.03.2019 20:00:00 7,3 3,3 2,1 4 2 5 3 SSW 1031,8 60 0,0
19.03.2019 19:00:00 8,9 3,3 7,3 3 2 8 5 W 1031,3 60 0,0
19.03.2019 18:00:00 9,6 2,7 10,0 8 4 18 10 W 1030,7 60 0,0
19.03.2019 17:00:00 10,9 3,4 13,8 11 6 19 10 W 1030,2 60 0,0
19.03.2019 16:00:00 10,0 4,4 13,2 8 4 21 11 W 1030,3 60 0,0
19.03.2019 15:00:00 10,6 4,5 15,2 11 6 21 11 W 1030,2 56 0,0
19.03.2019 14:00:00 10,3 4,6 13,0 13 7 21 11 W 1030,4 55 0,0
19.03.2019 13:00:00 9,7 6,2 12,0 13 7 21 11 W 1030,4 50 0,0
19.03.2019 12:00:00 8,9 6,9 11,0 9 5 18 10 W 1030,1 23 0,0
19.03.2019 11:00:00 9,0 7,1 11,2 10 5 16 9 WSW 1029,8 17 0,0
19.03.2019 10:00:00 7,7 7,1 10,0 8 4 12 6 S 1029,3 12 0,0
19.03.2019 09:00:00 7,0 6,7 7,2 5 3 9 5 SSE 1029,1 8 0,0
19.03.2019 08:00:00 5,9 5,6 4,9 5 3 10 5 SSE 1028,7 7 0,0
19.03.2019 07:00:00 5,3 5,0 3,0 3 2 11 6 SSE 1028,1 6 0,0
19.03.2019 06:00:00 5,0 4,6 2,3 2 1 11 6 SSE 1027,8 6 0,0
19.03.2019 05:00:00 5,6 5,2 4,2 9 5 12 6 S 1027,3 7 0,0
19.03.2019 04:00:00 5,6 5,2 5,2 5 3 14 8 S 1026,9 8 1,0
19.03.2019 03:00:00 5,7 5,1 5,2 6 3 12 6 SSW 1026,9 12 0,2
19.03.2019 02:00:00 5,8 5,2 5,3 4 2 13 7 SSW 1026,9 4,4 2,6
19.03.2019 01:00:00 5,9 5,0 5,3 9 5 16 9 SW 1026,8 18 0,0
19.03.2019 00:00:00 6,2 4,8 5,5 9 5 14 8 SW 1026,5 46 0,0
18.03.2019 23:00:00 6,7 5,3 4,6 8 4 18 10 W 1026,3 17 0,0
18.03.2019 22:00:00 6,1 4,9 2,9 6 3 16 9 W 1026,1 59 0,0
18.03.2019 21:00:00 6,7 4,7 4,9 9 5 19 11 WNW 1025,7 60 0,0
18.03.2019 20:00:00 7,1 4,6 5,2 9 5 27 14 WNW 1025,3 48 0,0
18.03.2019 19:00:00 6,7 4,2 5,1 8 4 34 18 NW 1024,9 60 0,2
18.03.2019 18:00:00 8,0 4,2 8,1 13 7 26 14 WNW 1024,5 46 0,0
18.03.2019 17:00:00 8,4 3,4 9,5 12 6 29 15 WNW 1023,9 52 0,0

tt = temperature
td = dewpoint
tt 5cm = temperature 5cm
ff = wind speed
fx = gusts
dd = wind direction
ppp = reduced air pressure
vv = visibility
rr = precipitation

Next stations